This is the latest recevied weather packets stored in our database for station/object CR7BQX-11. If no packets are shown the sender has not sent any weather packets the latest 10 day(s).
| Time | Temp. | Humidity | Pressure | Rain* | Wind** | Luminosity | Snow |
|---|---|---|---|---|---|---|---|
| 1778198342 | 22.22° C | 49% | 997.8 hPa | - | - | - | - |
| 1778197442 | 22.22° C | 49% | 997.8 hPa | - | - | - | - |
| 1778196541 | 22.22° C | 49% | 997.9 hPa | - | - | - | - |
| 1778195641 | 22.22° C | 49% | 998 hPa | - | - | - | - |
| 1778194741 | 22.22° C | 49% | 998 hPa | - | - | - | - |
| 1778193841 | 22.22° C | 49% | 998.3 hPa | - | - | - | - |
| 1778192941 | 22.22° C | 49% | 998.4 hPa | - | - | - | - |
| 1778192041 | 22.22° C | 49% | 998.5 hPa | - | - | - | - |
| 1778191144 | 22.22° C | 49% | 998.7 hPa | - | - | - | - |
| 1778190244 | 22.22° C | 49% | 998.7 hPa | - | - | - | - |
| 1778189344 | 22.22° C | 49% | 998.8 hPa | - | - | - | - |
| 1778188443 | 22.22° C | 49% | 998.8 hPa | - | - | - | - |
| 1778187543 | 22.22° C | 49% | 998.8 hPa | - | - | - | - |
| 1778186643 | 22.22° C | 48% | 998.6 hPa | - | - | - | - |
| 1778185743 | 22.22° C | 48% | 998.6 hPa | - | - | - | - |
| 1778184843 | 22.22° C | 49% | 998.5 hPa | - | - | - | - |
| 1778183943 | 22.22° C | 50% | 998.3 hPa | - | - | - | - |
| 1778183043 | 22.22° C | 53% | 998.2 hPa | - | - | - | - |
| 1778182142 | 22.22° C | 60% | 998.2 hPa | - | - | - | - |
| 1778181242 | 22.22° C | 53% | 998.2 hPa | - | - | - | - |
| 1778180342 | 21.67° C | 46% | 998 hPa | - | - | - | - |
| 1778179442 | 21.67° C | 45% | 997.8 hPa | - | - | - | - |
| 1778178542 | 22.22° C | 45% | 997.6 hPa | - | - | - | - |
| 1778177641 | 21.67° C | 45% | 997.5 hPa | - | - | - | - |
| 1778176741 | 22.22° C | 44% | 997.4 hPa | - | - | - | - |
* Rain since midnight (hover to see other rain measurements)
** Current wind speed in m/s (hover to see current wind gust speed)